Location: Del Amo
(33.8464°N, 118.2104°W)
Time: 23:45:00
(UTC+00:00)

Vanguard 1 Rocket - Visible Passes

Search period start: 11 September 2024 00:00
Search period end: 21 September 2024 00:00
Orbit: 649 x 4220 km, 34.3° (Epoch: 11 September)

Date Brightness Start Highest point End Pass type
(mag) Time Alt. Az. Time Alt. Az. Time Alt. Az.
11 Sep 10.1 10:11:45 36° SSE 10:15:45 41° SE 10:35:46 10° ENE visible
11 Sep 10.4 12:28:57 15° WSW 12:44:36 80° SSE 13:11:09 10° ENE visible
12 Sep 10.6 09:03:44 24° SE 09:03:44 24° SE 09:16:45 10° E visible
12 Sep 9.9 11:20:55 35° SW 11:29:31 66° SSE 11:54:02 10° ENE visible
13 Sep 9.8 10:12:53 45° SSE 10:15:45 48° SE 10:36:23 10° ENE visible
13 Sep 10.4 12:30:04 16° WSW 12:45:06 85° SSE 13:11:40 10° E visible
14 Sep 10.4 09:04:49 29° ESE 09:04:49 29° ESE 09:18:04 10° E visible
14 Sep 9.7 11:22:00 38° SW 11:29:50 73° SSE 11:54:27 10° ENE visible
15 Sep 11.1 07:56:44 11° E 07:56:44 11° E 07:57:39 10° E visible
15 Sep 9.6 10:13:55 53° SSE 10:15:54 56° SE 10:36:52 10° ENE visible
15 Sep 10.3 12:31:07 17° WSW 12:45:40 88° S 13:12:13 10° E visible
16 Sep 10.2 09:05:49 34° ESE 09:05:49 34° ESE 09:18:59 10° ENE visible
16 Sep 9.6 11:23:00 41° WSW 11:30:19 79° SSE 11:54:51 10° ENE visible
17 Sep 11.0 07:57:42 13° E 07:57:42 13° E 08:00:11 10° E visible
17 Sep 9.4 10:14:53 62° S 10:16:13 63° SSE 10:37:16 10° ENE visible
17 Sep 10.3 12:32:05 17° W 12:46:19 89° N 13:12:45 10° E visible
18 Sep 10.1 09:06:45 38° ESE 09:06:45 38° ESE 09:19:41 10° ENE visible
18 Sep 9.5 11:23:57 42° WSW 11:30:55 84° SSE 11:55:16 10° E visible
19 Sep 10.9 07:58:37 15° E 07:58:37 15° E 08:01:48 10° E visible
19 Sep 9.2 10:15:49 70° S 10:16:41 71° SSE 10:37:39 10° ENE visible
19 Sep 10.2 12:33:00 16° W 12:47:00 88° N 13:13:17 10° E visible
20 Sep 9.9 09:07:40 42° ESE 09:07:40 42° ESE 09:20:13 10° ENE visible
20 Sep 9.5 11:24:51 42° WSW 11:31:37 88° S 11:55:43 10° E visible
